Location: Calmejanne
(44.7523°N, 1.9418°E)
Time: 11:06:56
(UTC+00:00)

Cosmos 2219 Rocket - Pass Details

Date: 14 May 2026
Orbit: 826 x 846 km, 71.0° (Epoch: 8 June)

Event Time Altitude Azimuth Distance (km) Brightness Sun altitude
Rises 20:31:35 0° 343° (NNW) 3,403 6.5 -12.2°
Reaches altitude 10° 20:34:45 10° 0° (N) 2,468 5.3 -12.7°
Maximum altitude 20:38:48 20° 46° (NE) 1,880 4.0 -13.2°
Drops below altitude 10° 20:42:49 10° 92° (E) 2,467 4.2 -13.7°
Enters shadow 20:42:56 10° 93° (E) 2,496 4.2 -13.7°
